Weather History for Lumberton, NC

Change the Weather History Date:

Sunday, December 15, 2013

  Actual Average Record
Temperature  
Mean Temperature 46 °F 46 °F  
Max Temperature 56 °F 57 °F 72 °F (2011)
Min Temperature 35 °F 36 °F 13 °F (2010)
Degree Days  
Heating Degree Days 19 19  
Month to date heating degree days 226 258  
Since 1 July heating degree days 742 724  
Cooling Degree Days 0 0  
Month to date cooling degree days 6 0  
Year to date cooling degree days 1867 1907  
Moisture  
Dew Point 47 °F    
Average Humidity 81    
Maximum Humidity 100    
Minimum Humidity 61    
Precipitation  
Precipitation 0.02 in 0.10 in 0.92 in (2007)
Month to date precipitation 2.73 1.56  
Year to date precipitation 42.93 42.19  
Sea Level Pressure  
Sea Level Pressure 29.85 in    
Wind  
Wind Speed 7 mph (WNW)    
Max Wind Speed 16 mph    
Max Gust Speed 22 mph    
Visibility 6 miles    
Events Rain    
T = Trace of Precipitation, MM = Missing Value Source: NWS Daily Summary

Daily Weather History Graph

Daily Weather History Graph

Search for Another Location

Airport:

Trip Planner

Search our weather history database for the weather conditions in past years. The results will help you decide how hot, cold, wet, or windy it might be!

Date:

Astronomy

Dec. 15, 2013 Rise Set
Actual Time 7:15 AM EST 5:07 PM EST
Civil Twilight 6:48 AM EST 5:35 PM EST
Nautical Twilight 6:16 AM EST 6:06 PM EST
Astronomical Twilight 5:45 AM EST 6:37 PM EST
Moon 4:07 PM EST (12/15) 5:33 AM EST (12/15)
Length of Visible Light 10h 47m
Length of Day
9h 51m
Waxing Gibbous, 97% of the Moon is Illuminated
Dec 15
Waxing Gibbous
Dec 17
Full
Dec 25
Last Quarter
Jan 1
New
Jan 7
First Quarter

Hourly Weather History & Observations

Time (EST) Temp. Windchill Dew Point Humidity Pressure Visibility Wind Dir Wind Speed Gust Speed Precip Events Conditions
12:00 AM 55.9 °F - 55.0 °F 97% 29.78 in 1.8 mi NW 6.9 mph - N/A   Overcast
12:06 AM 55.0 °F - 54.0 °F 96% 29.79 in 1.0 mi NW 9.2 mph - N/A   Overcast
12:15 AM 54.0 °F - 54.0 °F 100% 29.78 in 0.8 mi WNW 6.9 mph - 0.01 in   Mist
12:32 AM 52.0 °F - 52.0 °F 100% 29.78 in 1.0 mi NW 6.9 mph - 0.01 in   Overcast
12:47 AM 52.0 °F - 51.1 °F 97% 29.77 in 1.5 mi NW 3.5 mph - 0.01 in   Overcast
12:52 AM 51.8 °F - 51.8 °F 100% 29.77 in 2.0 mi Calm Calm - 0.01 in   Overcast
12:54 AM 52.0 °F - 52.0 °F 100% 29.77 in 2.0 mi NW 3.5 mph - 0.01 in   Overcast
1:33 AM 51.1 °F - 51.1 °F 100% 29.74 in 1.5 mi Calm Calm - N/A   Overcast
1:46 AM 51.1 °F - 51.1 °F 100% 29.75 in 0.8 mi NW 3.5 mph - N/A   Overcast
1:54 AM 51.1 °F - 50.0 °F 96% 29.75 in 0.8 mi NW 5.8 mph - N/A   Mist
2:23 AM 51.1 °F - 50.0 °F 96% 29.77 in 1.2 mi WNW 9.2 mph - N/A   Overcast
2:28 AM 51.1 °F - 50.0 °F 96% 29.78 in 2.0 mi WNW 9.2 mph - N/A   Overcast
2:54 AM 50.0 °F - 48.9 °F 96% 29.78 in 2.5 mi WNW 9.2 mph - N/A   Overcast
3:07 AM 50.0 °F - 48.9 °F 96% 29.80 in 3.0 mi West 9.2 mph - N/A   Overcast
3:54 AM 51.1 °F - 50.0 °F 96% 29.78 in 4.0 mi WSW 8.1 mph - N/A   Overcast
4:24 AM 51.1 °F - 50.0 °F 96% 29.75 in 5.0 mi SW 5.8 mph - N/A   Overcast
4:54 AM 51.1 °F - 50.0 °F 96% 29.73 in 5.0 mi South 4.6 mph - 0.00 in Rain Light Rain
5:33 AM 51.1 °F - 50.0 °F 96% 29.75 in 5.0 mi NW 6.9 mph - 0.01 in Rain Light Rain
5:46 AM 51.1 °F - 50.0 °F 96% 29.75 in 6.0 mi Variable 3.5 mph - 0.01 in   Overcast
5:54 AM 51.1 °F - 50.0 °F 96% 29.75 in 6.0 mi West 4.6 mph - 0.01 in   Overcast
6:54 AM 51.1 °F - 50.0 °F 96% 29.78 in 7.0 mi WSW 5.8 mph - N/A   Clear
7:54 AM 52.0 °F - 50.0 °F 93% 29.83 in 7.0 mi West 8.1 mph - N/A   Mostly Cloudy
8:14 AM 52.0 °F - 50.0 °F 93% 29.84 in 8.0 mi West 9.2 mph - N/A   Overcast
8:44 AM 51.1 °F - 48.9 °F 92% 29.85 in 7.0 mi WNW 15.0 mph - N/A   Overcast
8:54 AM 51.1 °F - 48.9 °F 92% 29.85 in 6.0 mi WNW 12.7 mph 21.9 mph N/A   Overcast
9:20 AM 50.0 °F - 48.0 °F 93% 29.87 in 4.0 mi WNW 9.2 mph - N/A   Overcast
9:39 AM 50.0 °F - 48.0 °F 93% 29.89 in 4.0 mi WNW 10.4 mph - N/A   Overcast
9:54 AM 50.0 °F - 48.0 °F 93% 29.89 in 4.0 mi West 10.4 mph - N/A   Overcast
10:10 AM 51.1 °F - 48.0 °F 89% 29.89 in 6.0 mi WNW 11.5 mph - N/A   Overcast
10:19 AM 51.1 °F - 48.0 °F 89% 29.89 in 6.0 mi WNW 12.7 mph - N/A   Overcast
10:54 AM 52.0 °F - 46.9 °F 83% 29.89 in 10.0 mi WNW 13.8 mph - N/A   Overcast
11:03 AM 52.0 °F - 48.0 °F 86% 29.90 in 10.0 mi WNW 11.5 mph - N/A   Mostly Cloudy
11:54 AM 53.1 °F - 45.0 °F 74% 29.89 in 10.0 mi NW 12.7 mph - N/A   Mostly Cloudy
12:54 PM 54.0 °F - 44.1 °F 69% 29.88 in 10.0 mi WNW 10.4 mph - N/A   Mostly Cloudy
1:54 PM 54.0 °F - 43.0 °F 66% 29.88 in 10.0 mi WNW 9.2 mph - N/A   Partly Cloudy
2:54 PM 55.0 °F - 43.0 °F 64% 29.89 in 10.0 mi NW 9.2 mph - N/A   Mostly Cloudy
3:54 PM 54.0 °F - 42.1 °F 64% 29.91 in 10.0 mi West 9.2 mph - N/A   Partly Cloudy
4:54 PM 52.0 °F - 43.0 °F 71% 29.94 in 10.0 mi WSW 3.5 mph - N/A   Clear
5:54 PM 48.9 °F - 43.0 °F 80% 29.96 in 10.0 mi WNW 3.5 mph - N/A   Clear
6:54 PM 44.1 °F 42.5 °F 39.9 °F 85% 29.99 in 10.0 mi WNW 3.5 mph - N/A   Clear
7:54 PM 44.1 °F 42.5 °F 37.9 °F 79% 30.03 in 10.0 mi NW 3.5 mph - N/A   Clear
8:54 PM 43.0 °F 39.5 °F 35.1 °F 74% 30.06 in 10.0 mi NNW 5.8 mph - N/A   Clear
9:54 PM 37.9 °F 34.4 °F 36.0 °F 93% 30.08 in 10.0 mi WNW 4.6 mph - N/A   Clear
10:54 PM 37.0 °F - 35.1 °F 93% 30.10 in 10.0 mi Calm Calm - N/A   Clear
11:54 PM 35.1 °F 32.2 °F 33.1 °F 92% 30.11 in 10.0 mi WNW 3.5 mph - N/A   Clear